Location: Prague
(50.0830°N, 14.4670°E)
Time: 11:24:31
(UTC+01:00)

AO-7 - Pass Details

Date: 13 December 2021
Orbit: 1440 x 1459 km, 101.9° (Epoch: 29 January)

Event Time Altitude Azimuth Distance (km) Brightness Sun altitude
Rises 05:07:00 0° 18° (NNE) 4,552 ? -25.3°
Reaches altitude 10° 05:09:47 10° 17° (NNE) 3,573 ? -24.9°
Maximum altitude 05:18:04 74° 295° (WNW) 1,502 ? -23.5°
Drops below altitude 10° 05:26:21 10° 212° (SSW) 3,568 ? -22.2°
Sets 05:29:08 0° 211° (SSW) 4,545 ? -21.8°
